Tracking 19795 objects as of 17-Jul-2019
HD Live streaming from Space Station
objects crossing your sky now

COSMOS 1275 DEB

Track COSMOS 1275 DEB now!
10-day predictions


NORAD ID: 13473
Int'l Code: 1981-053FV
Perigee: 828.1 km
Apogee: 899.5 km
Inclination: 82.8 °
Period: 102.1 minutes
Semi major axis: 7234 km
RCS: 0.033 m2 (small)
Launch date: June 4, 1981
Source: Commonwealth of Independent States (former USSR) (CIS)
Launch site: PLESETSK MISSILE AND SPACE COMPLEX (PKMTR)

Note: This is SATELLITE DEBRIS
aabbcc
Your satellite tracking list
Your tracking list is empty




NASA's NSSDC Master Catalog

Two Line Element Set (TLE):
1 13473U 81053FV  19198.07130817  .00000572  00000-0  30699-3 0  9994
2 13473  82.8380 206.8076 0049340  15.9996  43.6225 14.10801443890653
Source of the keplerian elements: AFSPC